STARLINK-4730, 53794

Orbit data source: Space-Track

STARLINK-4730, 53794 is a payload satellite owned by SpaceX/Seattle (US) in LEO that was launched on Sun, 11 Sep 2022 UTC via an FALCON 9 launch vehicle from the Air Force Eastern Test Range (AFETR). Payload-class satellites include a variety of spacecraft equipped with specific instruments for various scientific and technological missions. These include communications satellites like Starlink; space stations such as the ISS; scientific satellites like the Hubble; Earth observation satellites from companies like Planet Labs, Umbra, and HawkEye 360; GPS; miniature CubeSats for education and research; and military/defense satellites.

Loading next visibility...
Identifier
53794, 2022-111X
Orbit
LEO
Country
Flag of USUS
Related business
Manufacturer
SpaceX/Seattle
Mission
Operational Commercial Communications
Bus & Motor
STARLINK, Unknown motor
Mass
305 kg wet, ~290 kg dry
Launch date (UTC)
2022-09-11 (4 years ago)
Launch vehicle
FALCON 9
Launch site
Air Force Eastern Test Range (AFETR)
Object type
Payload
Rocket body
Debris
Shape & HBR
Box + 1 Pan, 10.1 m
Radar Cross Section
13.562 m², Large (>1 m²)

Expand to show TLE details & history
Last TLE update: 9 hours ago

TLE from 9 hours ago
0 STARLINK-4730
1 53794U 22111X   26127.94390816 -.00000379  00000-0 -57361-5 0  9991
2 53794  53.2183   7.9644 0001392  92.6542 267.4610 15.08840535202633
Epoch: 2026-05-07T22:39Z
TLE epoch observation values (Epoch: 2026-05-07T22:39:13.665Z)
Latitude
0.00004°
Longitude
162.3747°
Altitude
540.682 km
Speed
7.593 km/s
True Right ascension
00h 31m 51s
True Declination
0° 00' 00"
Sunlit
Object was in daylight at epoch
Visualization orbit readout
Latitude
Unknown
Longitude
Unknown
Altitude
Unknown
Speed
Unknown
Apparent Right ascension
Unknown
Apparent Declination
Unknown
Sunlit
N/A
Visualization observer readout
Local Sidereal Time
16:08:22
Azimuth
Unknown
Elevation
Unknown
Doppler factor
Unknown
Orbital elements
Apogee altitude
540.95 km
Perigee altitude
539.024 km
Semi-major axis
6,918.124 km
Eccentricity
0.00014
Inclination
53.2183°
RAAN
7.9644°
Arg. of periapsis
92.6542°
True anomaly
267.44506°
Mean anomaly
267.461°
Eccentric anomaly
267.45303°
Mean motion
3.7719 °/min
Orbital period
95.44 mins
BSTAR
-0.0000057361
Loading maneuver chart data...
Computing Atmospheric mass density...
Loading historical data...
Loading historical data...
Loading historical data...
Loading historical data...
Loading historical data...
Loading historical data...
Loading historical data...

Documentation

Showing up to 5 results
|